Regional Weather Roundup
Issued by NWS

Home | Current Version | Previous Version | Graphics & Text | Print | Product List | Glossary On
Versions: 1 2 3 4 5 6 7 8 9 10 11 12 13 14 15 16 17 18 19 20 21 22 23 24 25 26 27 28 29 30 31 32 33 34 35 36 37 38 39 40 41 42 43 44 45 46 47 48 49 50
000
ASUS45 KCYS 251710
RWRWY

WYOMING REGIONAL WEATHER ROUNDUP
NATIONAL WEATHER SERVICE CHEYENNE WY
1100 AM MDT FRI JUL 25 2014

NOTE:  "FAIR" INDICATES FEW OR NO CLOUDS BELOW 12,000 FEET
WITH NO SIGNIFICANT WEATHER AND/OR OBSTRUCTIONS TO VISIBILITY.

WYZ001-251800-
YELLOWSTONE NATIONAL PARK

CITY           SKY/WX    TMP DP  RH WIND       PRES   REMARKS
LK YELLOWSTONE   N/A     63  25  23 VRB6      30.25F
W YELLOWSTONE  NOT AVBL

$$
WYZ002>013-054>058-071-098>099-251800-
NORTHERN WYOMING

CITY           SKY/WX    TMP DP  RH WIND       PRES   REMARKS
JACKSON        SUNNY     64  34  32 CALM      30.18F
CODY           NOT AVBL
GREYBULL       SUNNY     78  36  21 VRB5      29.97F
WORLAND        SUNNY     76  39  26 NE6       29.98F
SHERIDAN       SUNNY     76  51  41 S6        29.97F
BUFFALO        SUNNY     75  49  39 SE14      30.02F
GILLETTE       SUNNY     74  36  25 SE8       30.00F
HULETT         FAIR      73  41  31 MISG      30.03
NEWCASTLE      FAIR      75  48  38 S15       30.03

$$
WYZ014>020-022>026-101>103-251800-
CENTRAL WYOMING

CITY           SKY/WX    TMP DP  RH WIND       PRES   REMARKS
BIG PINEY      SUNNY     72  30  21 VRB5      30.22F
PINEDALE       SUNNY     73  28  19 CALM      30.23S
DUBOIS         FAIR      73  19  13 W22G37    30.16S
LANDER         SUNNY     77  27  15 N5        30.07S
RIVERTON       SUNNY     77  37  23 VRB3      30.06F
CASPER         SUNNY     83  47  28 S8        30.04F
DOUGLAS        SUNNY     77  49  37 SE7       30.06F

$$
WYZ021-027>030-104>119-251800-
SOUTHERN WYOMING

CITY           SKY/WX    TMP DP  RH WIND       PRES   REMARKS
EVANSTON       SUNNY     77  39  25 SW16G23   30.24S
KEMMERER       SUNNY     75  30  19 SW9       30.24S
FORT BRIDGER   FAIR      80  34  19 NW8       30.25S
ROCK SPRINGS   SUNNY     79  38  22 SW9G18    30.19S
DIXON          FAIR      83  46  27 S17G31    30.22S
RAWLINS        SUNNY     83  44  25 W21G31    30.18S
SARATOGA       FAIR      82  43  24 SW20G28   30.21S
LARAMIE        PTSUNNY   76  47  35 W20       30.22S
CHEYENNE       PTSUNNY   75  53  46 VRB5      30.16F
TORRINGTON     PTSUNNY   78  51  38 VRB6      30.04S
PINE BLUFFS    FAIR      79  55  44 E7        30.10S

$$



USA.gov is the U.S. government's official web portal to all federal, state and local government web resources and services.